EW3803 Sines PT current weather conditions

sailwx.info

Wind from 131 at 5 knots gusting 9

Air temperature 13.9° C
Dewpoint 11.6° C

Last reported at 2020-Jan-17 19:45 UTC.
Time now 2020-Jan-17 20:17 UTC

Location: N 37°58' W 008°51'.
View on Google Maps.

See reports from other nearby stations

  
Tides and Currents Weather Stations Pressure Air Temp Water Temp Dewpoint Dewpoint Depression Visibility Wind Speed Wind Dir Waves Ship Positions
date/time (UTC)wind fromknots sea level pressurealtimeterstation pressurevisibilityair tempwater tempwave heightnotes
2020-Jan-17 19:45 131 5 gusting 9 13.9
2020-Jan-17 19:30 130 5 gusting 8 13.9
2020-Jan-17 19:15 150 5 gusting 9 13.9
2020-Jan-17 19:00 139 5 gusting 9 13.3
2020-Jan-17 18:46 136 5 gusting 8 13.3
2020-Jan-17 18:31 130 5 gusting 8 13.3
2020-Jan-17 18:15 131 1 gusting 4 13.3
2020-Jan-17 18:01 131 13.9
2020-Jan-17 17:46 131 14.4
2020-Jan-17 17:30 131 0 gusting 1 14.4
2020-Jan-17 17:15 131 15.0
2020-Jan-17 17:01 131 1 gusting 2 15.6
2020-Jan-17 16:45 131 16.7
2020-Jan-17 16:30 131 1 gusting 4 16.7
2020-Jan-17 16:15 131 1 gusting 6 17.2
2020-Jan-17 16:00 124 0 gusting 6 17.2
2020-Jan-17 15:45 120 4 gusting 6 17.2
2020-Jan-17 15:30 126 2 gusting 7 17.8
2020-Jan-17 15:15 129 4 gusting 6 17.8
2020-Jan-17 15:00 143 1 gusting 8 17.8
2020-Jan-17 14:45 146 4 gusting 8 17.8
2020-Jan-17 14:30 155 5 gusting 7 17.2
2020-Jan-17 14:17 120 2 gusting 6 17.2
2020-Jan-17 14:05 207 2 gusting 6 16.7
2020-Jan-17 13:47 157 6 gusting 8 16.1
2020-Jan-17 13:32 161 4 gusting 8 16.1
2020-Jan-17 13:16 159 3 gusting 8 15.6
2020-Jan-17 13:01 151 6 gusting 8 15.6
2020-Jan-17 12:46 140 5 gusting 10 15.0
2020-Jan-17 12:31 155 5 gusting 9 15.0
2020-Jan-17 12:16 161 4 gusting 7 15.0
2020-Jan-17 12:02 147 2 gusting 5 14.4
2020-Jan-17 11:46 084 1 gusting 3 13.9
2020-Jan-17 11:31 124 13.9
2020-Jan-17 11:16 124 13.9
2020-Jan-17 11:01 124 13.9
2020-Jan-17 10:45 124 13.3
2020-Jan-17 10:30 182 13.3
2020-Jan-17 10:16 182 12.8
2020-Jan-17 10:01 181 12.8
2020-Jan-17 09:46 181 12.8
2020-Jan-17 09:31 181 12.2
2020-Jan-17 09:16 182 12.2
2020-Jan-17 09:00 169 0 gusting 3 11.7
2020-Jan-17 08:45 146 1 gusting 4 11.7
2020-Jan-17 08:31 157 0 gusting 4 11.7
2020-Jan-17 08:15 164 12.2
2020-Jan-17 08:00 179 12.8
2020-Jan-17 07:46 179 12.8
2020-Jan-17 07:30 180 12.8
2020-Jan-17 07:15 179 12.8
2020-Jan-17 07:01 179 12.8
2020-Jan-17 06:45 179 0 gusting 2 12.8
2020-Jan-17 06:30 180 0 gusting 2 12.8
2020-Jan-17 06:17 179 12.8
2020-Jan-17 06:01 180 0 gusting 2 12.8
2020-Jan-17 05:47 180 12.8
2020-Jan-17 05:32 179 12.8
2020-Jan-17 05:19 179 0 gusting 1 13.3
2020-Jan-17 05:02 179 13.3
2020-Jan-17 04:48 180 13.3
2020-Jan-17 04:32 180 13.3
2020-Jan-17 04:17 179 0 gusting 1 13.3
2020-Jan-17 04:01 180 13.3
2020-Jan-17 03:46 179 13.3
2020-Jan-17 03:31 179 13.9
2020-Jan-17 03:16 179 13.3
2020-Jan-17 03:02 180 13.9
2020-Jan-17 02:46 179 13.9
2020-Jan-17 02:31 180 13.9
2020-Jan-17 02:16 179 13.3
2020-Jan-17 02:01 180 13.3
2020-Jan-17 01:47 179 0 gusting 1 13.3
2020-Jan-17 01:30 180 13.3
2020-Jan-17 01:16 180 13.3
2020-Jan-17 01:01 180 0 gusting 2 13.3
2020-Jan-17 00:46 175 0 gusting 2 13.3
2020-Jan-17 00:30 171 0 gusting 2 13.3
2020-Jan-17 00:15 171 0 gusting 2 13.3
2020-Jan-17 00:00 178 1 gusting 3 13.3
2020-Jan-16 23:45 180 1 gusting 4 13.3
2020-Jan-16 23:30 177 1 gusting 3 12.8
2020-Jan-16 23:15 169 3 gusting 5 12.8
2020-Jan-16 23:00 160 3 gusting 4 12.8
2020-Jan-16 22:45 168 1 gusting 3 13.3
2020-Jan-16 22:30 168 1 gusting 3 13.3
2020-Jan-16 22:15 188 0 gusting 2 13.3
2020-Jan-16 22:00 215 0 gusting 2 13.3
2020-Jan-16 21:45 249 0 gusting 3 13.3
2020-Jan-16 21:30 281 12.8
2020-Jan-16 21:15 275 0 gusting 2 12.8
2020-Jan-16 21:00 296 1 gusting 7 12.8
2020-Jan-16 20:47 317 4 gusting 8 13.3
2020-Jan-16 20:32 293 6 gusting 14 15.0
2020-Jan-16 20:16 227 7 gusting 16 15.0
2020-Jan-16 20:01 191 6 gusting 17 15.0
2020-Jan-16 19:48 209 9 gusting 16 15.0
2020-Jan-16 19:33 207 11 gusting 19 15.0
2020-Jan-16 19:18 215 10 gusting 19 15.0
2020-Jan-16 19:01 192 11 gusting 17 15.6
2020-Jan-16 18:48 192 13 gusting 20 15.6
2020-Jan-16 18:31 182 13 gusting 21 15.6
2020-Jan-16 18:17 204 13 gusting 20 15.6
2020-Jan-16 18:01 202 13 gusting 19 15.6
2020-Jan-16 17:46 191 13 gusting 19 15.6
2020-Jan-16 17:31 209 13 gusting 22 15.6
2020-Jan-16 17:16 206 14 gusting 20 15.6
2020-Jan-16 17:02 218 12 gusting 19 15.6
2020-Jan-16 16:46 203 13 gusting 19 15.6
2020-Jan-16 16:30 182 14 gusting 26 15.6
2020-Jan-16 16:16 185 12 gusting 19 15.6
2020-Jan-16 16:00 182 13 gusting 21 15.6
2020-Jan-16 15:46 208 14 gusting 23 16.1
2020-Jan-16 15:30 216 16 gusting 24 16.1
2020-Jan-16 15:15 209 15 gusting 25 16.1
2020-Jan-16 15:01 217 13 gusting 23 16.1
2020-Jan-16 14:45 219 13 gusting 20 16.1
2020-Jan-16 14:32 200 14 gusting 24 16.1
2020-Jan-16 14:16 195 14 gusting 22 16.7
2020-Jan-16 14:01 221 13 gusting 20 16.7
2020-Jan-16 13:45 200 15 gusting 22 16.7
2020-Jan-16 13:30 183 15 gusting 24 16.7
2020-Jan-16 13:15 194 13 gusting 20 16.7
2020-Jan-16 13:00 217 13 gusting 21 16.7
2020-Jan-16 12:45 196 13 gusting 22 16.7
2020-Jan-16 12:31 217 11 gusting 17 16.7
2020-Jan-16 12:15 182 12 gusting 19 16.7
2020-Jan-16 12:00 183 13 gusting 19 16.7
2020-Jan-16 11:45 198 10 gusting 22 16.1
2020-Jan-16 11:30 184 9 gusting 16 16.1
2020-Jan-16 11:15 189 8 gusting 16 16.1
2020-Jan-16 11:00 128 5 gusting 15 15.6
2020-Jan-16 10:45 169 6 gusting 12 15.6
2020-Jan-16 10:30 137 5 gusting 12 15.6
2020-Jan-16 10:15 218 5 gusting 13 15.0
2020-Jan-16 10:03 139 4 gusting 12 15.0
2020-Jan-16 09:47 205 5 gusting 13 14.4
2020-Jan-16 09:32 159 4 gusting 11 14.4
2020-Jan-16 09:18 185 5 gusting 12 13.9
2020-Jan-16 09:01 161 6 gusting 13 13.9
2020-Jan-16 08:46 164 6 gusting 16 13.9
2020-Jan-16 08:31 160 6 gusting 12 13.9
2020-Jan-16 08:16 178 6 gusting 10 13.9
2020-Jan-16 08:01 158 6 gusting 12 13.9
2020-Jan-16 07:48 157 6 gusting 12 13.9
2020-Jan-16 07:31 165 6 gusting 13 13.9
2020-Jan-16 07:16 165 6 gusting 9 13.9
2020-Jan-16 07:00 167 5 gusting 10 13.9
2020-Jan-16 06:47 161 5 gusting 10 13.9
2020-Jan-16 06:31 138 6 gusting 10 13.9
2020-Jan-16 06:16 205 6 gusting 13 13.9
2020-Jan-16 06:01 150 4 gusting 10 13.3
2020-Jan-16 05:46 144 5 gusting 9 13.3
2020-Jan-16 05:30 170 5 gusting 12 13.3
2020-Jan-16 05:15 170 4 gusting 10 13.9
2020-Jan-16 05:02 176 6 gusting 10 13.9
2020-Jan-16 04:45 175 6 gusting 10 13.9
2020-Jan-16 04:30 171 6 gusting 11 13.9
2020-Jan-16 04:15 127 4 gusting 8 13.9
2020-Jan-16 04:00 146 4 gusting 9 13.9
2020-Jan-16 03:45 172 3 gusting 7 13.9
2020-Jan-16 03:31 139 5 gusting 7 13.9
2020-Jan-16 03:15 178 4 gusting 10 14.4
2020-Jan-16 03:00 139 3 gusting 10 14.4
2020-Jan-16 02:45 180 6 gusting 12 14.4
2020-Jan-16 02:30 194 7 gusting 13 14.4
2020-Jan-16 02:15 205 5 gusting 12 14.4
2020-Jan-16 02:00 157 5 gusting 15 14.4
2020-Jan-16 01:45 186 5 gusting 13 14.4
2020-Jan-16 01:30 163 4 gusting 9 14.4
2020-Jan-16 01:15 140 5 gusting 10 14.4
2020-Jan-16 01:00 136 6 gusting 12 14.4
2020-Jan-16 00:46 112 4 gusting 8 14.4
2020-Jan-16 00:32 175 6 gusting 12 14.4
2020-Jan-16 00:17 150 5 gusting 13 14.4
2020-Jan-16 00:04 163 6 gusting 13 14.4
2020-Jan-15 23:46 169 3 gusting 9 14.4
2020-Jan-15 23:32 130 5 gusting 10 15.0
2020-Jan-15 23:17 182 6 gusting 11 15.0
2020-Jan-15 23:01 163 5 gusting 13 15.0
2020-Jan-15 22:46 176 5 gusting 13 15.0
2020-Jan-15 22:32 167 5 gusting 13 15.0
2020-Jan-15 22:16 134 6 gusting 12 15.0
2020-Jan-15 22:01 161 5 gusting 10 15.0
2020-Jan-15 21:46 185 4 gusting 13 15.0
2020-Jan-15 21:31 191 4 gusting 9 15.0
2020-Jan-15 21:18 165 6 gusting 11 15.0
2020-Jan-15 21:01 179 4 gusting 10 15.6
2020-Jan-15 20:46 197 10 gusting 16 15.0
2020-Jan-15 20:31 192 6 gusting 14 15.0
2020-Jan-15 20:16 173 5 gusting 10 15.0
2020-Jan-15 20:02 166 6 gusting 11 15.0